User: anonymous   Login
Location: Goheenville
(40.9070°N, 79.3720°W)
Time: 03:21:43
(UTC-04:00)
Language:

Meteor 2-10 Rocket - Orbit

View from above orbital plane
View from above orbital plane
View from above satellite
View from above satellite

Ground track
Ground track

The orbit data is extracted from the following two-line orbital elements,

1 14453U 83109B   16242.85645211  .00000050  00000-0  15196-4 0  9996
2 14453  81.1661  39.3703 0104959 185.9535 174.0406 14.24653842706049
Epoch (UTC): 29 August 2016 20:33:17
Eccentricity: 0.0104959
inclination: 81.1661°
perigee height: 734 km
apogee height: 885 km
right ascension of ascending node: 39.3703°
argument of perigee: 185.9535°
revolutions per day: 14.24653842
mean anomaly at epoch: 174.0406°
orbit number at epoch: 70604

The dashed part of the orbit path shows where the satellite is in the earth's shadow,  

DLR